Weather History for Carroll, IA

Change the Weather History Date:

Monday, March 18, 2013

  Actual Average Record
Temperature  
Mean Temperature 27 °F -  
Max Temperature 33 °F 46 °F 82 °F (2012)
Min Temperature 19 °F 27 °F -2 °F (1965)
Degree Days  
Heating Degree Days 38    
Moisture  
Dew Point 22 °F    
Average Humidity 79    
Maximum Humidity 100    
Minimum Humidity 64    
Precipitation  
Precipitation 0.03 in - - ()
Sea Level Pressure  
Sea Level Pressure 29.83 in    
Wind  
Wind Speed 16 mph (WNW)    
Max Wind Speed 30 mph    
Max Gust Speed 41 mph    
Visibility 8 miles    
Events Rain , Snow    
Averages and records for this station are not official NWS values.
T = Trace of Precipitation, MM = Missing Value Source: NWS Daily Summary

Daily Weather History Graph

Daily Weather History Graph

Search for Another Location

Airport:

Trip Planner

Search our weather history database for the weather conditions in past years. The results will help you decide how hot, cold, wet, or windy it might be!

Date:

Astronomy

Mar. 18, 2013 Rise Set
Actual Time 7:25 AM CDT 7:29 PM CDT
Civil Twilight 6:57 AM CDT 7:57 PM CDT
Nautical Twilight 6:25 AM CDT 8:29 PM CDT
Astronomical Twilight 5:51 AM CDT 9:03 PM CDT
Moon 11:19 AM CDT (3/18) 1:35 AM CDT (3/18)
Length of Visible Light 12h 59m
Length of Day
12h 04m
Waxing Crescent, 41% of the Moon is Illuminated
Mar 18
Waxing Crescent
Mar 19
First Quarter
Mar 27
Full
Apr 2
Last Quarter
Apr 10
New

Hourly Weather History & Observations

Time (CDT) Temp. Windchill Dew Point Humidity Pressure Visibility Wind Dir Wind Speed Gust Speed Precip Events Conditions
12:15 AM 32.0 °F 24.8 °F 32.0 °F 100% 29.81 in 3.0 mi SE 8.1 mph - N/A Snow Light Snow
12:35 AM 32.0 °F 24.2 °F 32.0 °F 100% 29.80 in 2.0 mi SE 9.2 mph - N/A Snow Light Snow
12:55 AM 32.0 °F 25.6 °F 32.0 °F 100% 29.80 in 2.5 mi SE 6.9 mph - N/A Snow Light Snow
1:15 AM 32.0 °F 24.2 °F 32.0 °F 100% 29.79 in 2.5 mi SSE 9.2 mph - N/A   Overcast
1:35 AM 32.0 °F 22.5 °F 32.0 °F 100% 29.76 in 2.0 mi SE 12.7 mph - N/A   Overcast
1:55 AM 32.0 °F 23.6 °F 32.0 °F 100% 29.75 in 2.5 mi SE 10.4 mph - N/A   Overcast
2:15 AM 32.0 °F 22.5 °F 32.0 °F 100% 29.74 in 2.5 mi SSE 12.7 mph - N/A   Overcast
2:35 AM - - - N/A% - - North - - N/A   Unknown
2:55 AM 32.0 °F 21.2 °F 32.0 °F 100% 29.71 in 3.0 mi SSE 16.1 mph - N/A   Mist
3:15 AM 32.0 °F 22.1 °F 32.0 °F 100% 29.72 in 5.0 mi SSE 13.8 mph - N/A   Overcast
3:35 AM 32.0 °F 21.6 °F 32.0 °F 100% 29.71 in 5.0 mi SSE 15.0 mph - N/A   Overcast
3:55 AM 32.0 °F 23.0 °F 32.0 °F 100% 29.72 in 4.0 mi South 11.5 mph - N/A Rain Light Rain
4:15 AM 32.0 °F 23.0 °F 32.0 °F 100% 29.74 in 3.0 mi SSW 11.5 mph - N/A   Overcast
4:35 AM 32.0 °F 24.2 °F 32.0 °F 100% 29.73 in 1.0 mi SSW 9.2 mph - N/A Snow Light Snow
4:55 AM 32.0 °F 24.8 °F 32.0 °F 100% 29.72 in 1.5 mi SSW 8.1 mph - 0.01 in Snow Light Snow
5:15 AM 32.0 °F 24.8 °F 32.0 °F 100% 29.71 in 2.0 mi SSW 8.1 mph - N/A Snow Light Snow
5:35 AM 32.0 °F 24.2 °F 32.0 °F 100% 29.70 in 3.0 mi SSW 9.2 mph - N/A   Overcast
5:55 AM 32.0 °F 23.0 °F 32.0 °F 100% 29.70 in 3.0 mi SSW 11.5 mph - 0.02 in   Overcast
6:15 AM 33.8 °F 24.3 °F 33.8 °F 100% 29.70 in 3.0 mi SW 13.8 mph - N/A   Overcast
6:35 AM 33.8 °F 23.5 °F 33.8 °F 100% 29.70 in 7.0 mi SW 16.1 mph - N/A   Overcast
6:55 AM 33.8 °F 23.2 °F 33.8 °F 100% 29.70 in 10.0 mi West 17.3 mph - N/A   Overcast
7:15 AM 33.8 °F 24.3 °F 33.8 °F 100% 29.70 in 10.0 mi West 13.8 mph - N/A   Overcast
7:35 AM 33.8 °F 24.3 °F 32.0 °F 93% 29.70 in 10.0 mi WNW 13.8 mph - N/A   Overcast
7:55 AM 32.0 °F 18.1 °F 26.6 °F 80% 29.72 in 10.0 mi WNW 27.6 mph 34.5 mph N/A   Overcast
8:15 AM 30.2 °F 17.1 °F 24.8 °F 80% 29.73 in 10.0 mi WNW 21.9 mph 28.8 mph N/A   Mostly Cloudy
8:35 AM 30.2 °F 17.8 °F 24.8 °F 80% 29.73 in 10.0 mi NW 19.6 mph 26.5 mph N/A   Mostly Cloudy
8:55 AM 30.2 °F 16.5 °F 24.8 °F 80% 29.74 in 10.0 mi WNW 24.2 mph 33.4 mph N/A   Overcast
9:15 AM 28.4 °F 13.5 °F 21.2 °F 74% 29.75 in 10.0 mi WNW 26.5 mph 34.5 mph N/A   Overcast
9:35 AM 28.4 °F 15.1 °F 21.2 °F 74% 29.75 in 10.0 mi NW 20.7 mph 31.1 mph N/A   Scattered Clouds
9:55 AM 28.4 °F 15.1 °F 21.2 °F 74% 29.75 in 10.0 mi WNW 20.7 mph - N/A   Clear
10:35 AM 26.6 °F 10.8 °F 17.6 °F 69% 29.77 in 10.0 mi NW 27.6 mph 33.4 mph N/A   Partly Cloudy
10:55 AM 26.6 °F 13.1 °F 19.4 °F 74% 29.78 in 10.0 mi WNW 19.6 mph 28.8 mph N/A   Mostly Cloudy
11:15 AM 26.6 °F 10.3 °F 17.6 °F 69% 29.79 in 10.0 mi WNW 29.9 mph - N/A   Mostly Cloudy
11:35 AM 26.6 °F 11.1 °F 17.6 °F 69% 29.80 in 10.0 mi NW 26.5 mph 36.8 mph N/A   Scattered Clouds
11:55 AM 24.8 °F 9.0 °F 17.6 °F 74% 29.81 in 10.0 mi NW 25.3 mph 36.8 mph N/A   Overcast
12:15 PM 24.8 °F 9.3 °F 17.6 °F 74% 29.82 in 10.0 mi NW 24.2 mph 36.8 mph N/A Rain Light Freezing Rain
12:35 PM 24.8 °F 8.4 °F 17.6 °F 74% 29.82 in 8.0 mi NW 27.6 mph 36.8 mph N/A   Overcast
12:55 PM 24.8 °F 8.7 °F 15.8 °F 69% 29.83 in 10.0 mi NW 26.5 mph 36.8 mph N/A Rain Light Freezing Rain
1:15 PM 24.8 °F 8.1 °F 17.6 °F 74% 29.84 in 7.0 mi WNW 28.8 mph 35.7 mph N/A Rain Light Freezing Rain
1:35 PM 24.8 °F 8.1 °F 15.8 °F 69% 29.85 in 9.0 mi WNW 28.8 mph 38.0 mph N/A Snow Light Snow
1:55 PM 23.0 °F 6.0 °F 15.8 °F 74% 29.85 in 10.0 mi NW 27.6 mph 34.5 mph N/A Rain Light Freezing Rain
2:15 PM 24.8 °F 9.0 °F 15.8 °F 69% 29.86 in 10.0 mi NW 25.3 mph 35.7 mph N/A Rain Light Freezing Rain
2:35 PM 24.8 °F 8.7 °F 15.8 °F 69% 29.86 in 10.0 mi WNW 26.5 mph 34.5 mph N/A Rain Light Freezing Rain
2:55 PM 24.8 °F 8.1 °F 15.8 °F 69% 29.86 in 10.0 mi WNW 28.8 mph 36.8 mph N/A Rain Light Freezing Rain
3:15 PM 23.0 °F 6.0 °F 14.0 °F 68% 29.87 in 10.0 mi NW 27.6 mph 41.4 mph N/A Rain Light Freezing Rain
3:35 PM 24.8 °F 9.0 °F 14.0 °F 64% 29.88 in 10.0 mi WNW 25.3 mph 36.8 mph N/A   Overcast
3:55 PM 24.8 °F 9.3 °F 15.8 °F 69% 29.88 in 10.0 mi WNW 24.2 mph 33.4 mph N/A   Overcast
4:15 PM 24.8 °F 7.9 °F 14.0 °F 64% 29.88 in 10.0 mi WNW 29.9 mph 38.0 mph N/A   Overcast
4:35 PM 24.8 °F 7.9 °F 14.0 °F 64% 29.88 in 10.0 mi NW 29.9 mph 36.8 mph N/A Rain Light Freezing Rain
4:55 PM 24.8 °F 8.4 °F 15.8 °F 69% 29.89 in 10.0 mi WNW 27.6 mph 38.0 mph N/A   Overcast
5:15 PM 26.6 °F 10.6 °F 15.8 °F 64% 29.89 in 10.0 mi WNW 28.8 mph 40.3 mph N/A   Overcast
5:35 PM 26.6 °F 11.1 °F 15.8 °F 64% 29.89 in 10.0 mi NW 26.5 mph 33.4 mph N/A   Overcast
5:55 PM 24.8 °F 8.1 °F 15.8 °F 69% 29.90 in 10.0 mi WNW 28.8 mph 35.7 mph N/A   Light Freezing Rain
6:15 PM 26.6 °F 10.8 °F 15.8 °F 64% 29.90 in 10.0 mi WNW 27.6 mph 35.7 mph N/A   Mostly Cloudy
6:35 PM 26.6 °F 13.8 °F 15.8 °F 64% 29.91 in 10.0 mi NW 17.3 mph 29.9 mph N/A   Overcast
6:55 PM 26.6 °F 14.3 °F 15.8 °F 64% 29.92 in 10.0 mi NW 16.1 mph 24.2 mph N/A   Overcast
7:15 PM 26.6 °F 14.7 °F 15.8 °F 64% 29.92 in 10.0 mi WNW 15.0 mph 27.6 mph N/A   Scattered Clouds
7:35 PM 24.8 °F 11.5 °F 15.8 °F 69% 29.93 in 10.0 mi NW 17.3 mph - N/A   Clear
7:55 PM 24.8 °F 11.5 °F 15.8 °F 69% 29.94 in 10.0 mi NW 17.3 mph - N/A   Clear
8:15 PM 24.8 °F 11.1 °F 15.8 °F 69% 29.94 in 10.0 mi NW 18.4 mph 24.2 mph N/A   Clear
8:35 PM 24.8 °F 11.9 °F 15.8 °F 69% 29.95 in 10.0 mi NW 16.1 mph 24.2 mph N/A   Clear
8:55 PM 23.0 °F 8.0 °F 14.0 °F 68% 29.96 in 10.0 mi NW 20.7 mph 27.6 mph N/A   Clear
9:15 PM 23.0 °F 8.0 °F 14.0 °F 68% 29.98 in 10.0 mi NW 20.7 mph - N/A   Clear
9:35 PM 23.0 °F 9.2 °F 14.0 °F 68% 29.98 in 10.0 mi NW 17.3 mph 27.6 mph N/A   Clear
9:55 PM 23.0 °F 9.6 °F 14.0 °F 68% 29.99 in 10.0 mi NW 16.1 mph - N/A   Clear
10:15 PM 23.0 °F 8.7 °F 14.0 °F 68% 29.99 in 10.0 mi NW 18.4 mph 26.5 mph N/A   Clear
10:55 PM 21.2 °F 6.0 °F 14.0 °F 74% 29.99 in 10.0 mi NW 19.6 mph 27.6 mph N/A   Clear
11:15 PM 21.2 °F 4.9 °F 12.2 °F 68% 29.96 in 10.0 mi NW 23.0 mph - N/A   Clear
11:35 PM 21.2 °F 5.6 °F 12.2 °F 68% 29.98 in 10.0 mi NW 20.7 mph - N/A   Clear
11:55 PM 19.4 °F 5.5 °F 12.2 °F 74% 29.99 in 10.0 mi NNW 15.0 mph 20.7 mph N/A   Clear